www.pogodaiklimat.ru

Погода и климат >> Архив погоды >> Норвегия >> Нируд


ПОГОДА в Нируде

  • Прогноз погоды в Нируде
  • Монитор погоды в Нируде

АРХИВ ПОГОДЫ в Нируде

Время (UTC), дата Ветер
(напр.,м/с)
 
Видим.   Явления Облачность Т
(С)
Тd
(С)
f
(%)
Тe
(С)
Тes
(С)
Комфортность P
(гПа)
Po
(гПа)
Тmin
(С)
Tmax
(С)
R
(мм)
R24
(мм)
S
(см)
10 16.07 н/о н/о +10.1 +4.3 67 1017.0 1010.3
11 16.07 н/о н/о +10.3 +6.1 75 1017.0 1010.3
12 16.07 н/о н/о +9.8 +5.6 75 1016.9 1010.2
13 16.07 н/о н/о +9.6 +5.4 75 1016.8 1010.1
14 16.07 н/о н/о +10.1 +5.5 73 1016.8 1010.1
15 16.07 н/о н/о +8.9 +5.3 78 1017.1 1010.4
16 16.07 н/о н/о +8.1 +5.6 84 1017.3 1010.6
17 16.07 н/о н/о +7.7 +6.0 89 1017.0 1010.3
18 16.07 н/о н/о +7.8 +6.1 89 1016.7 1010.0 +7.7 +11.0
19 16.07 н/о н/о +7.8 +6.3 90 1016.4 1009.7
20 16.07 н/о н/о +7.6 +6.2 91 1016.3 1009.6
21 16.07 н/о н/о +7.6 +6.4 92 1016.3 1009.6
22 16.07 н/о н/о +7.3 +6.4 94 1016.4 1009.6 0.2
23 16.07 н/о н/о +7.2 +6.3 94 1016.3 1009.5 0.3
00 17.07 н/о н/о +7.0 +6.3 95 1016.0 1009.2 0.3
01 17.07 н/о н/о +7.0 +6.3 95 1015.7 1008.9 0.6
02 17.07 н/о н/о +7.1 +6.4 95 1015.5 1008.7 0.4
03 17.07 н/о н/о +7.0 +6.1 94 1015.1 1008.3 0.5
04 17.07 н/о н/о +7.4 +6.5 94 1014.7 1008.0 0.4
05 17.07 н/о н/о +7.9 +6.8 93 1014.4 1007.7 0.3
06 17.07 н/о н/о +8.1 +6.9 92 1013.9 1007.2 +7.0 +8.1 4
07 17.07 н/о н/о +8.7 +7.3 91 1013.5 1006.8 0.3
08 17.07 н/о н/о +9.2 +7.7 90 1013.2 1006.5 0.3
09 17.07 н/о н/о +9.6 +7.4 86 1013.0 1006.3 0.1
10 17.07 н/о н/о +9.9 +8.0 88 1012.8 1006.1 0.2
11 17.07 н/о н/о +10.2 +8.0 86 1012.7 1006.0 0.4
12 17.07 н/о н/о +10.0 +8.3 89 1012.7 1006.0 0.4
13 17.07 н/о н/о +10.7 +7.9 83 1012.4 1005.8
14 17.07 н/о н/о +10.5 +8.1 85 1012.5 1005.8 0.1
15 17.07 н/о н/о +11.3 +8.5 83 1012.3 1005.7 0.1
16 17.07 н/о н/о +11.3 +8.3 82 1012.5 1005.9
17 17.07 н/о н/о +10.7 +8.1 84 1012.9 1006.3
18 17.07 н/о н/о +10.1 +8.9 92 1013.3 1006.6 +8.1 +11.6 2
19 17.07 н/о н/о +9.4 +8.3 93 1013.6 1006.9
20 17.07 н/о н/о +8.4 +7.6 95 1014.0 1007.3
21 17.07 н/о н/о +6.5 +5.9 96 1014.5 1007.7
22 17.07 н/о н/о +4.8 +4.2 96 1015.1 1008.3
23 17.07 н/о н/о +3.3 +2.9 97 1015.6 1008.8
00 18.07 н/о н/о +2.0 +1.6 97 1016.0 1009.1
01 18.07 н/о н/о +2.5 +2.1 97 1016.3 1009.4
02 18.07 н/о н/о +4.0 +3.7 98 1016.6 1009.8
03 18.07 н/о н/о +6.8 +6.5 98 1016.7 1009.9
04 18.07 н/о н/о +8.1 +7.8 98 1017.0 1010.3
05 18.07 н/о н/о +10.6 +9.8 95 1017.2 1010.5
06 18.07 н/о н/о +14.5 +8.2 66 1017.0 1010.4 +2.0 +14.5
07 18.07 н/о н/о +16.0 +5.6 50 1017.2 1010.6
08 18.07 н/о н/о +17.2 +7.0 51 1017.1 1010.6
09 18.07 н/о н/о +17.9 +5.8 45 1017.2 1010.7
10 18.07 н/о н/о +17.0 +5.6 47 1017.5 1011.0
11 18.07 н/о н/о +17.3 +6.5 49 1017.5 1011.0
12 18.07 н/о н/о +18.1 +6.0 45 1017.5 1011.0
13 18.07 н/о н/о +17.8 +7.3 50 1017.6 1011.1
14 18.07 н/о н/о +17.7 +6.3 47 1017.5 1011.0
15 18.07 н/о н/о +17.5 +8.4 55 1017.6 1011.1
16 18.07 н/о н/о +16.6 +9.1 61 1017.8 1011.3
17 18.07 н/о н/о +15.6 +9.3 66 1018.0 1011.4
18 18.07 н/о н/о +15.0 +9.4 69 1018.3 1011.7 +14.5 +18.9
19 18.07 н/о н/о +13.3 +10.8 85 1018.7 1012.1
20 18.07 н/о н/о +12.6 +10.8 89 1018.8 1012.2 0.2
21 18.07 н/о н/о +12.4 +11.1 92 1018.8 1012.2 0.1
22 18.07 н/о н/о +12.2 +11.1 93 1018.9 1012.2 0.2
23 18.07 н/о н/о +11.8 +11.0 95 1018.6 1011.9 0.1
00 19.07 н/о н/о +12.0 +10.7 92 1018.5 1011.8 0.3
01 19.07 н/о н/о +11.6 +10.2 91 1018.0 1011.3 0.2
02 19.07 н/о н/о +11.3 +9.9 91 1017.8 1011.1 0.5
03 19.07 н/о н/о +10.9 +9.8 93 1017.8 1011.1 0.6
04 19.07 н/о н/о +10.8 +9.4 91 1017.7 1011.0 0.8
05 19.07 н/о н/о +10.8 +9.9 94 1017.3 1010.6 1
06 19.07 н/о н/о +11.2 +10.0 92 1017.2 1010.5 +10.7 +15.0 4
07 19.07 н/о н/о +11.8 +10.6 92 1017.0 1010.3 0.4
08 19.07 н/о н/о +12.4 +10.6 89 1016.6 1010.0
09 19.07 н/о н/о +12.9 +10.8 87 1016.5 1009.9
10 19.07 н/о н/о +12.6 +10.2 85 1016.6 1010.0
11 19.07 н/о н/о +12.3 +10.9 91 1016.6 1010.0 0.1
12 19.07 н/о н/о +12.7 +10.9 89 1016.5 1009.9 0.1
13 19.07 н/о н/о +12.7 +10.9 89 1016.4 1009.8
14 19.07 н/о н/о +13.5 +10.9 84 1016.0 1009.4
15 19.07 н/о н/о +13.2 +11.1 87 1015.9 1009.3
17 19.07 н/о н/о +13.8 +11.2 84 1015.5 1008.9
18 19.07 н/о н/о +13.6 +11.1 85 1015.3 1008.7 +11.2 +13.9
19 19.07 н/о н/о +13.2 +11.3 88 1015.2 1008.6
20 19.07 н/о н/о +13.0 +11.4 90 1015.1 1008.5
21 19.07 н/о н/о +11.4 +10.5 94 1015.0 1008.4
22 19.07 н/о н/о +9.1 +8.3 95 1015.3 1008.6
23 19.07 н/о н/о +7.3 +6.7 96 1015.6 1008.9
00 20.07 н/о н/о +7.3 +6.9 97 1015.7 1009.0
01 20.07 н/о н/о +7.8 +7.4 97 1015.5 1008.8
02 20.07 н/о н/о +9.6 +9.3 98 1015.2 1008.5
03 20.07 н/о н/о +10.3 +9.9 97 1015.2 1008.5
04 20.07 н/о н/о +13.7 +10.9 83 1015.0 1008.4
05 20.07 н/о н/о +14.4 +11.2 81 1014.9 1008.3
06 20.07 н/о н/о +15.9 +10.9 72 1014.7 1008.2 +7.2 +16.0
07 20.07 н/о н/о +17.2 +11.3 68 1014.7 1008.2
08 20.07 н/о н/о +18.3 +11.9 66 1014.5 1008.0
09 20.07 н/о н/о +19.4 +11.5 60 1014.3 1007.8
10 20.07 н/о н/о +20.5 +11.4 56 1014.1 1007.7
11 20.07 н/о н/о +21.3 +10.8 51 1014.1 1007.7
12 20.07 н/о н/о +21.9 +9.8 46 1014.0 1007.6
13 20.07 н/о н/о +22.5 +8.6 41 1013.7 1007.3
14 20.07 н/о н/о +22.6 +7.2 37 1013.5 1007.1
15 20.07 н/о н/о +22.3 +6.5 36 1013.6 1007.2
16 20.07 н/о н/о +22.6 +6.0 34 1013.6 1007.2
17 20.07 н/о н/о +21.8 +6.5 37 1013.4 1007.0
18 20.07 н/о н/о +21.1 +8.1 43 1013.4 1007.0 +15.9 +23.6
19 20.07 н/о н/о +18.7 +9.5 55 1013.7 1007.2
20 20.07 н/о н/о +15.6 +9.7 68 1013.9 1007.4
21 20.07 н/о н/о +15.0 +9.6 70 1014.3 1007.7
22 20.07 н/о н/о +13.3 +9.4 77 1014.6 1008.0
23 20.07 н/о н/о +13.5 +9.6 77 1014.6 1008.0
00 21.07 н/о н/о +12.8 +9.6 81 1014.8 1008.2
01 21.07 н/о н/о +11.8 +9.5 86 1014.8 1008.2
02 21.07 н/о н/о +12.1 +10.2 88 1014.9 1008.3
03 21.07 н/о н/о +12.0 +10.3 89 1015.1 1008.5
04 21.07 н/о н/о +14.3 +11.1 81 1015.4 1008.8
05 21.07 н/о н/о +16.5 +11.4 72 1015.3 1008.8
06 21.07 н/о н/о +18.6 +10.9 61 1015.4 1008.9 +11.2 +21.1
07 21.07 н/о н/о +20.2 +10.3 53 1015.5 1009.0
08 21.07 н/о н/о +21.3 +11.6 54 1015.3 1008.9
09 21.07 н/о н/о +22.8 +10.9 47 1015.0 1008.6
10 21.07 н/о н/о +21.4 +12.0 55 1015.0 1008.6
11 21.07 н/о н/о +24.6 +10.5 41 1014.9 1008.5
12 21.07 н/о н/о +25.7 +8.7 34 1014.6 1008.3
13 21.07 н/о н/о +26.3 +6.4 28 1014.3 1008.0
14 21.07 н/о н/о +26.5 +7.0 29 1014.2 1007.9
15 21.07 н/о н/о +25.2 +7.8 33 1014.0 1007.7
16 21.07 н/о н/о +24.6 +8.6 36 1014.1 1007.8
17 21.07 н/о н/о +24.0 +8.0 36 1014.1 1007.7
18 21.07 н/о н/о +20.6 +10.1 51 1014.4 1008.0 +18.6 +26.8
19 21.07 н/о н/о +20.5 +10.6 53 1014.8 1008.4
20 21.07 н/о н/о +18.3 +11.6 65 1014.9 1008.4
21 21.07 н/о н/о +15.0 +11.0 77 1015.2 1008.6
22 21.07 н/о н/о +12.6 +11.0 90 1015.4 1008.8 0.1
23 21.07 н/о н/о +11.0 +10.2 95 1015.6 1008.9
00 22.07 н/о н/о +10.7 +9.8 94 1015.6 1008.9
01 22.07 н/о н/о +11.1 +10.2 94 1015.6 1008.9
02 22.07 н/о н/о +11.7 +10.9 95 1015.6 1009.0
03 22.07 н/о н/о +14.7 +12.6 87 1015.2 1008.6
04 22.07 н/о н/о +17.9 +13.2 74 1015.3 1008.8
05 22.07 н/о н/о +19.8 +13.3 66 1015.3 1008.8
06 22.07 н/о н/о +22.1 +13.2 57 1014.9 1008.5 +10.6 +22.1 0.1
07 22.07 н/о н/о +23.7 +11.7 47 1014.7 1008.3
08 22.07 н/о н/о +24.0 +10.7 43 1014.5 1008.1
09 22.07 н/о н/о +25.4 +8.8 35 1014.5 1008.2
10 22.07 н/о н/о +26.6 +8.1 31 1014.4 1008.1
11 22.07 н/о н/о +27.0 +8.9 32 1014.2 1007.9
12 22.07 н/о н/о +27.1 +9.5 33 1014.1 1007.8
13 22.07 н/о н/о +27.4 +8.8 31 1013.9 1007.6
14 22.07 н/о н/о +27.4 +8.8 31 1013.6 1007.3
15 22.07 н/о н/о +27.0 +8.0 30 1013.5 1007.2
16 22.07 н/о н/о +27.4 +7.8 29 1013.7 1007.4
17 22.07 н/о н/о +26.3 +8.3 32 1013.7 1007.4
18 22.07 н/о н/о +25.2 +10.3 39 1013.8 1007.5 +22.1 +28.0
19 22.07 н/о н/о +21.5 +11.2 52 1014.0 1007.6
20 22.07 н/о н/о +18.8 +11.4 62 1014.3 1007.8
21 22.07 н/о н/о +15.6 +11.8 78 1014.7 1008.2
22 22.07 н/о н/о +14.1 +11.4 84 1015.0 1008.4
23 22.07 н/о н/о +13.0 +10.7 86 1015.3 1008.7
00 23.07 н/о н/о +11.9 +10.3 90 1015.3 1008.7
01 23.07 н/о н/о +11.9 +10.5 91 1015.6 1009.0
02 23.07 н/о н/о +12.5 +11.9 96 1015.7 1009.1
03 23.07 н/о н/о +16.5 +12.1 75 1015.7 1009.2
04 23.07 н/о н/о +19.4 +14.0 71 1015.7 1009.2
05 23.07 н/о н/о +22.3 +11.7 51 1015.5 1009.1
06 23.07 н/о н/о +23.8 +12.5 49 1015.5 1009.1 +11.7 +25.2
07 23.07 н/о н/о +25.7 +12.2 43 1015.4 1009.1
08 23.07 н/о н/о +26.8 +12.1 40 1015.4 1009.1
09 23.07 н/о н/о +27.7 +10.9 35 1015.4 1009.1
10 23.07 н/о н/о +29.2 +9.9 30 1015.2 1008.9

 

Местоположение метеостанции Нируд (Норвегия): широта 69.15 долгота 29.24 высота над уровнем моря 56 м.

В архиве по умолчанию представлена погода в Нируде за последнюю неделю. Архивные данные за месяц целиком и за предыдущие месяцы, начиная с января 2011 года, Вы можете получить, выбрав интересующий диапазон дат из раскрывающегося списка и нажав кнопку "Ввод!".


*Определитесь, кто Вы:
робот инопланетянин человек

Внимание! Время в таблицах - всемирное. Для получения местного времени необходимо прибавить поправку, которая равна 1 ч.

Смотрите также архив погоды в соседних городах и на ближайших метеорологических станциях:

Погода в Инари Вайла (Финляндия) (13 км)
Погода в Янискоски (Мурманская область, Россия) (27 км)
Погода в Пасвике (Норвегия) (46 км)
Погода в Никеле (Мурманская область, Россия) (48 км)
Погода в Инари Кираккаярви (Финляндия) (50 км)
Погода в Неллиме (Финляндия) (50 км)
Погода на Острове Сеиталасса (Финляндия) (60 км)
Погода в Киркенес аэропорту (Норвегия) (69 км)
Погода в Верховье Лотты (Мурманская область, Россия) (70 км)
Погода в Кааманене (Финляндия) (78 км)

Пояснения к столбцам:

Ветер - указаны скорость ветра в м/с - средняя за 10 мин, порывы в срок и между сроками (в фигурных скобках) и направление, откуда дует ветер: С - северный, СВ - северо-восточный, В - восточный, ЮВ - юго-восточный, Ю - южный, ЮЗ - юго-западный, З - западный, СЗ - северо-западный.
Видимость - горизонтальная дальность видимости в метрах или километрах. При видимости от 1 до 10 км при отсутствии осадков обычно наблюдается дымка, при ухудшении видимости до 1 км и менее - туман. В сухую погоду видимость может ухудшаться дымом, пылью или мглою.
Явления - указаны атмосферные явления, наблюдавшиеся в срок или в последний час перед сроком; фигурными скобками обозначены явления, наблюдавшиеся между сроками (за 1-3 часа до срока); квадратными скобками обозначены град или гололедные отложения с указанием их диаметра в мм.
Облачность - указаны через наклонную черту общая и нижняя облачность в баллах и высота нижней границы облаков в метрах; квадратными скобками обозначены формы облаков: Ci - перистые, Cs - перисто-слоистые, Cc - перисто-кучевые, Ac - высококучевые, As - высокослоистые, Sc - слоисто-кучевые, Ns - слоисто-дождевые, Cu - кучевые, Cb - кучево-дождевые. Подробнее классификацию облаков см. в Атласе облаков (PDF).
T - Температура воздуха - температура, измеренная на высоте 2 м над землей.
Td - Температура точки росы - температура, при понижении до которой содержащийся в воздухе водяной пар достигнет насыщения.
f - Относительная влажность воздуха - влажноcть воздуха, измеренная на высоте 2 м над землей.
Te - Эффективная температура - температура, которую ощущает одетый по сезону человек в тени. Характеристика душности погоды. При расчете учитывается влияние влажности воздуха и скорости ветра на теплоощущения человека.
Tes - Эффективная температура на солнце - температура, которую ощущает человек, с поправкой на солнечный нагрев. Характеристика знойности погоды. Зависит от высоты солнца над горизонтом, облачности и скорости ветра. Ночью, в пасмурную погоду, а также при ветре 12 м/с и более поправка равна нулю.
P - Атмосферное давление - приведенное к уровню моря атмосферное давление.
Po - Атмосферное давление - измеренное на уровне метеостанции атмосферное давление.
Tmin - Минимальная температура - минимум температуры воздуха на высоте 2 м над землей.
Tmax - Максимальная температура - максимум температуры воздуха на высоте 2 м над землей.
R - Количество осадков - Количество выпавших осадков за период времени, мм. При наведении курсора мыши на число - период времени, за который выпало указанное количество осадков.
R24 - Количество осадков - Количество выпавших осадков за 24 часа, мм.
S - Снежный покров - Высота снежного покрова, см. При наведении курсора мыши на число - состояние снежного покрова и степень покрытия местности в баллах.